Harlan, IA

10:04 PM CST on December 10, 2019 (GMT -0600)
Harlan Municipal

Weather History for KHNR - October, 2019

Change the Weather History Date:

Friday, October 4, 2019

  Actual Average Record
Temperature  
Mean Temperature 42 °F -  
Max Temperature 48 °F 68 °F 93 °F (2005)
Min Temperature 37 °F 43 °F 25 °F (1968)
Degree Days  
Heating Degree Days 24    
Moisture  
Dew Point 40 °F    
Average Humidity 98    
Maximum Humidity 100    
Minimum Humidity 82    
Precipitation  
Precipitation 0.00 in - - ()
Sea Level Pressure  
Sea Level Pressure 30.39 in    
Wind  
Wind Speed 4 mph ()    
Max Wind Speed 12 mph    
Max Gust Speed 15 mph    
Visibility 10.0 miles    
Events      
Averages and records for this station are not official NWS values.
T = Trace of Precipitation, MM = Missing Value Source: Averaged Metar Reports

Daily Weather History Graph

Daily Weather History Graph

Search for Another Location

Airport or City:

Astronomy

Oct. 04, 2019 Rise Set
Actual Time 7:21 AM CDT 6:58 PM CDT
Civil Twilight 6:53 AM CDT 7:26 PM CDT
Nautical Twilight 6:21 AM CDT 7:58 PM CDT
Astronomical Twilight 5:48 AM CDT 8:30 PM CDT
Moon 1:58 PM CDT (10/4) 11:23 PM CDT (10/4)
Length of Visible Light 12h 32m
Length of Day
11h 37m
Waxing Crescent, 40% of the Moon is Illuminated
Oct 4
Waxing Crescent
Oct 5
First Quarter
Oct 13
Full
Oct 21
Last Quarter
Oct 27
New

Hourly Weather History & Observations

Time (CDT) Temp. Windchill Dew Point Humidity Pressure Visibility Wind Dir Wind Speed Gust Speed Precip Events Conditions
12:15 AM 39.2 °F 37.0 °F 39.2 °F 100% 30.36 in 10.0 mi North 3.5 mph - N/A   Clear
12:35 AM 41.0 °F 38.0 °F 41.0 °F 100% 30.36 in 10.0 mi North 4.6 mph - N/A   Clear
12:55 AM 41.0 °F 38.0 °F 41.0 °F 100% 30.37 in 10.0 mi North 4.6 mph - N/A   Clear
1:15 AM 41.0 °F 38.0 °F 41.0 °F 100% 30.37 in 10.0 mi North 4.6 mph - N/A   Clear
1:35 AM 39.2 °F - 39.2 °F 100% 30.38 in 10.0 mi Calm Calm - N/A   Clear
1:55 AM 39.2 °F 35.9 °F 39.2 °F 100% 30.37 in 10.0 mi North 4.6 mph - N/A   Clear
2:15 AM - - - N/A% 30.37 in 10.0 mi North 5.8 mph - N/A   Clear
2:35 AM 41.0 °F 38.0 °F 41.0 °F 100% 30.38 in 10.0 mi North 4.6 mph - N/A   Clear
2:55 AM 41.0 °F 38.0 °F 41.0 °F 100% 30.38 in 10.0 mi North 4.6 mph - N/A   Clear
3:15 AM 39.2 °F 35.9 °F 39.2 °F 100% 30.38 in 10.0 mi North 4.6 mph - N/A   Clear
3:35 AM 39.2 °F 35.9 °F 39.2 °F 100% 30.38 in 10.0 mi NNE 4.6 mph - N/A   Clear
3:55 AM 39.2 °F 37.0 °F 39.2 °F 100% 30.38 in 10.0 mi North 3.5 mph - N/A   Clear
4:15 AM 39.2 °F 35.9 °F 39.2 °F 100% 30.38 in 10.0 mi NNE 4.6 mph - N/A   Clear
4:35 AM 39.2 °F 37.0 °F 39.2 °F 100% 30.38 in 10.0 mi North 3.5 mph - N/A   Clear
4:55 AM 39.2 °F - 39.2 °F 100% 30.39 in 10.0 mi Calm Calm - N/A   Clear
5:15 AM 39.2 °F - 39.2 °F 100% 30.40 in 10.0 mi Calm Calm - N/A   Clear
5:35 AM 37.4 °F - 37.4 °F 100% 30.40 in 10.0 mi Calm Calm - N/A   Clear
5:55 AM 39.2 °F 35.9 °F 39.2 °F 100% 30.40 in 10.0 mi NE 4.6 mph - N/A   Clear
6:15 AM - - - N/A% 30.40 in 10.0 mi NE 4.6 mph - N/A   Clear
6:35 AM - - - N/A% 30.40 in 10.0 mi ENE 3.5 mph - N/A   Clear
6:55 AM 37.4 °F - 37.4 °F 100% 30.40 in 10.0 mi Calm Calm - N/A   Clear
7:15 AM 39.2 °F 37.0 °F 39.2 °F 100% 30.40 in 10.0 mi East 3.5 mph - N/A   Clear
7:35 AM 39.2 °F - 39.2 °F 100% 30.40 in 10.0 mi Calm Calm - N/A   Clear
7:55 AM 39.2 °F - 39.2 °F 100% 30.40 in 10.0 mi Calm Calm - N/A   Mostly Cloudy
8:15 AM 41.0 °F - 41.0 °F 100% 30.40 in 10.0 mi Calm Calm - N/A   Mostly Cloudy
8:35 AM - - - N/A% 30.40 in 10.0 mi East 5.8 mph - N/A   Overcast
8:55 AM 42.8 °F 38.0 °F 42.8 °F 100% 30.39 in 10.0 mi East 8.1 mph - N/A   Overcast
9:15 AM 42.8 °F 40.1 °F 42.8 °F 100% 30.40 in 10.0 mi Variable 4.6 mph 11.5 mph N/A   Overcast
9:35 AM 42.8 °F 37.0 °F 42.8 °F 100% 30.40 in 10.0 mi East 10.4 mph - N/A   Overcast
10:15 AM 44.6 °F 39.2 °F 42.8 °F 93% 30.40 in 10.0 mi East 10.4 mph - N/A   Overcast
10:35 AM 44.6 °F 38.8 °F 42.8 °F 93% 30.39 in 10.0 mi East 11.5 mph - N/A   Overcast
10:55 AM 46.4 °F 42.4 °F 42.8 °F 87% 30.38 in 10.0 mi East 8.1 mph 13.8 mph N/A   Unknown
11:15 AM 46.4 °F 41.1 °F 42.8 °F 87% 30.38 in 10.0 mi East 11.5 mph - N/A   Unknown
11:35 AM 48.2 °F - 42.8 °F 82% 30.37 in 10.0 mi ESE 9.2 mph 15.0 mph N/A   Unknown
11:55 AM - - - N/A% - - North - - N/A   Unknown
12:15 PM - - - N/A% - - North - - N/A   Unknown
12:35 PM - - - N/A% - - North - - N/A   Unknown
12:55 PM - - - N/A% - - North - - N/A   Unknown
1:15 PM - - - N/A% - - North - - N/A   Unknown
1:35 PM - - - N/A% - - North - - N/A   Unknown
1:55 PM - - - N/A% - - North - - N/A   Unknown
2:15 PM - - - N/A% - - North - - N/A   Unknown
2:35 PM - - - N/A% - - North - - N/A   Unknown
2:55 PM - - - N/A% - - North - - N/A   Unknown
3:15 PM - - - N/A% - - North - - N/A   Unknown
3:35 PM - - - N/A% - - North - - N/A   Unknown
3:55 PM - - - N/A% - - North - - N/A   Unknown
4:15 PM - - - N/A% - - North - - N/A   Unknown
4:35 PM - - - N/A% - - North - - N/A   Unknown
4:55 PM - - - N/A% - - North - - N/A   Unknown
5:15 PM - - - N/A% - - North - - N/A   Unknown
5:35 PM - - - N/A% - - North - - N/A   Unknown
5:55 PM - - - N/A% - - North - - N/A   Unknown
6:15 PM - - - N/A% - - North - - N/A   Unknown
6:35 PM - - - N/A% - - North - - N/A   Unknown
6:55 PM - - - N/A% - - North - - N/A   Unknown
7:15 PM - - - N/A% - - North - - N/A   Unknown
7:35 PM - - - N/A% - - North - - N/A   Unknown
7:55 PM - - - N/A% - - North - - N/A   Unknown
8:15 PM - - - N/A% - - North - - N/A   Unknown
8:35 PM - - - N/A% - - North - - N/A   Unknown
8:55 PM - - - N/A% - - North - - N/A   Unknown
9:15 PM - - - N/A% - - North - - N/A   Unknown
9:35 PM - - - N/A% - - North - - N/A   Unknown
9:55 PM - - - N/A% - - North - - N/A   Unknown
10:15 PM - - - N/A% - - North - - N/A   Unknown
10:35 PM - - - N/A% - - North - - N/A   Unknown
10:55 PM - - - N/A% - - North - - N/A   Unknown
11:15 PM - - - N/A% - - North - - N/A   Unknown
11:35 PM - - - N/A% - - North - - N/A   Unknown
11:55 PM - - - N/A% - - North - - N/A   Unknown